CAPE
4 3 4 1 1 7 10 2 6 15 16 14 13 10 6 7 8 9 10 6 9 84 71 57 4 0 0 199 275 135 130 186 167 53 0 0 0 0 0 0 0 0 0
9 7 7 5 6 7 8 12 13 10 12 15 10 9 8 7 9 8 9 7 7 1 14 7 0 0 0 0 125 167 105 84 175 132 0 0 0 0 0 0 0 0 0
5 4 2 1 4 5 7 8 12 2 4 10 11 13 12 10 5 8 6 8 7 2 1 0 3 29 17 60 225 225 123 50 81 71 0 0 0 0 0 0 0 0 0
0 1 1 0 0 0 3 3 7 8 6 8 7 10 10 9 6 4 7 8 9 9 5 4 2 2 1 9 0 66 71 52 37 69 5 0 0 0 0 0 0 0 0
0 0 2 0 0 0 0 0 0 2 2 1 3 3 2 7 13 4 5 10 9 9 10 3 5 2 1 2 1 1 1 16 18 61 62 50 0 0 0 0 2 0 0
0 0 1 0 0 0 0 0 1 2 2 1 1 3 0 7 19 15 6 4 7 9 9 4 6 4 2 0 0 0 0 3 1 1 1 0 0 0 0 0 0 1 0
5 1 3 2 0 0 0 0 0 0 1 0 2 3 1 0 22 15 11 5 4 4 4 7 8 8 2 2 0 0 0 1 0 3 2 1 0 1 2 0 2 1 0
1 2 2 1 0 0 0 0 0 0 0 0 2 6 6 6 14 8 6 1 0 2 2 6 3 4 6 2 0 0 0 3 3 1 2 1 2 1 1 2 3 2 0
2 2 1 4 0 0 0 0 0 0 0 0 1 5 5 7 11 6 0 3 2 1 1 0 6 3 14 8 2 1 0 0 2 2 1 2 0 0 0 3 0 1 0
1 2 2 5 0 0 0 1 1 0 0 0 0 5 8 9 13 9 0 1 1 2 2 7 12 8 14 7 5 4 1 1 0 0 1 0 0 1 0 4 4 1 1
0 0 0 0 2 0 0 0 0 0 0 0 0 0 3 8 7 13 10 2 7 3 4 4 5 7 9 8 8 7 3 2 1 1 2 1 0 2 2 2 3 2 0
0 0 0 0 1 0 0 0 0 0 0 0 1 0 0 3 6 6 8 5 1 5 4 4 2 3 2 3 2 3 2 0 0 0 0 0 0 1 2 2 1 0 2
0 0 0 0 0 0 0 0 0 0 0 0 0 0 0 0 0 3 1 2 2 0 1 1 2 2 1 1 2 2 0 0 0 0 0 1 2 2 3 2 0 1 0
0 0 0 0 0 0 0 0 0 0 0 0 0 0 0 0 0 0 0 0 0 0 0 0 0 5 0 0 0 0 0 1 1 1 1 1 1 2 3 3 3 2 1
0 0 0 0 0 0 0 0 0 0 0 0 0 0 0 0 0 1 0 0 0 0 0 0 0 0 0 0 0 0 0 0 1 1 1 1 2 2 3 4 6 4 5
0 0 0 0 0 0 0 0 0 1 3 3 3 1 0 3 4 1 0 0 0 0 0 0 0 0 0 0 0 0 0 0 1 1 0 1 1 1 2 3 5 3 3
0 0 0 0 0 0 0 0 0 0 0 0 2 2 2 3 3 2 0 0 0 0 0 0 0 0 0 0 0 0 0 0 0 0 0 0 1 0 0 1 4 2 2
0 0 0 0 0 0 0 0 0 0 0 0 0 0 1 2 2 2 0 0 0 0 0 0 0 0 0 0 0 0 0 0 0 0 0 0 0 1 1 0 1 1 2
0 0 0 0 0 0 0 0 0 0 0 0 0 0 0 0 0 1 1 0 0 0 0 0 0 0 0 0 0 0 0 0 0 0 0 0 0 0 0 0 1 0 0
0 0 0 0 0 0 0 0 0 0 0 0 0 0 0 0 0 0 0 0 0 0 0 0 0 0 0 0 0 0 0 0 0 0 0 0 0 0 0 0 0 2 2
0 0 0 0 0 0 0 0 0 0 0 0 0 0 0 0 0 0 0 0 0 0 0 0 0 0 0 0 0 0 0 0 0 0 0 0 0 0 0 1 0 0 1
0 0 0 0 0 0 0 0 0 0 0 0 0 0 0 0 0 0 0 0 0 0 0 0 0 0 0 0 0 0 0 0 0 0 0 0 0 0 0 0 0 0 0
0 0 0 0 0 0 0 0 0 0 0 0 0 0 0 0 0 0 0 0 0 0 0 0 0 0 0 0 0 0 0 0 0 0 0 0 0 0 0 0 1 0 0
0 0 0 0 0 0 0 0 0 0 0 0 0 0 0 0 0 0 0 0 0 0 0 0 0 0 0 0 0 0 0 0 0 0 0 0 0 0 0 0 0 0 0
0 0 0 0 0 0 0 0 0 0 0 0 0 0 0 0 0 0 0 0 0 0 0 0 0 0 0 0 0 0 0 0 0 0 0 0 0 0 0 0 0 0 0
0 0 0 0 0 0 0 0 0 0 0 0 0 0 0 0 0 0 0 0 0 0 0 0 0 0 0 0 0 0 0 0 0 0 0 0 0 0 0 0 0 0 0
CIN
-0 -0 -0 -0 -0 0 0 0 0 0 0 0 0 0 0 0 0 0 0 0 0 -2 -6 -56 -58 0 0 -67 -4 -4 -25 -78 -87 -134 0 0 0 0 0 0 0 0 0
-0 -0 -0 -0 0 0 0 0 0 0 0 0 0 0 0 0 0 0 0 0 0 0 -2 -3 -1 0 0 0 -33 -4 -6 -110 -96 -98 0 0 0 0 0 0 0 0 0
-0 -0 -1 -1 -0 -0 0 0 0 0 0 0 0 0 0 0 0 0 0 0 0 0 0 0 -5 -0 -1 -6 -6 -1 -4 -82 -139 -125 0 0 0 0 0 0 0 0 0
0 -0 -1 0 0 -0 -1 -1 -0 0 0 0 -0 0 0 0 0 0 0 0 0 0 0 0 0 0 0 -1 0 -16 -14 -31 -118 -106 -167 0 0 0 0 0 0 0 0
0 -0 -0 -0 0 0 0 -1 -2 -1 -1 -1 -0 -0 -0 0 0 0 0 0 0 0 0 0 0 0 0 0 0 0 0 -4 -59 -79 -93 -97 0 0 0 0 -126 0 0
0 0 -0 -0 0 0 0 0 -1 -1 -1 -2 -1 -0 -1 -0 0 0 0 0 0 0 0 0 0 0 0 0 0 0 0 0 0 0 0 0 0 0 0 0 0 0 0
0 0 0 -0 0 0 0 0 0 -0 -1 -1 -1 -1 -1 -1 0 0 0 0 0 0 0 0 0 0 0 0 0 0 0 0 0 0 0 0 0 0 0 0 -0 0 0
0 0 0 0 0 0 0 0 0 0 0 0 0 0 -0 -0 0 0 0 -0 -0 -0 0 0 0 0 0 0 0 0 0 0 0 0 0 0 0 0 0 0 0 0 0
0 0 0 0 0 0 0 0 0 0 0 0 0 0 0 0 0 0 0 0 -0 -0 -0 -0 0 0 0 0 0 0 0 0 0 0 0 0 0 0 0 0 0 0 -0
0 0 0 0 0 0 0 0 0 0 0 0 0 0 0 0 0 0 0 0 0 0 0 0 0 0 0 0 0 0 0 0 0 0 0 0 0 0 0 0 0 0 0
0 0 0 0 -1 0 0 0 0 -0 0 0 0 0 0 0 0 0 0 0 0 0 0 0 0 0 0 0 0 0 0 0 0 0 0 -0 -0 0 -0 -0 0 0 0
0 0 0 0 0 -0 0 0 -0 0 0 -0 -0 0 -0 0 0 0 0 0 0 0 0 0 0 0 0 0 0 0 0 -0 -0 -0 0 -0 -0 0 -0 -0 -0 -0 -0
0 0 0 0 0 0 0 0 0 0 0 0 0 0 0 -1 -0 0 0 0 0 0 0 0 0 0 0 0 0 0 0 -0 0 0 0 -0 -0 -0 -0 -0 -0 -0 0
0 0 0 0 0 0 0 0 0 0 0 0 0 0 0 0 0 0 0 0 0 0 0 0 0 0 0 0 0 0 -0 -0 -0 0 0 -0 -0 0 0 0 0 0 0
0 0 0 0 0 0 0 0 0 0 -2 0 0 0 0 0 0 0 0 0 0 0 0 0 0 0 0 0 0 0 0 0 0 0 0 0 0 0 0 0 0 0 0
0 0 0 0 0 0 0 0 0 -0 -0 0 0 -1 0 -1 0 0 0 0 0 0 0 0 0 0 0 0 0 0 0 0 0 0 0 0 0 0 0 0 -0 0 0
0 0 0 0 0 0 0 0 0 0 0 0 0 0 0 0 0 0 0 0 0 0 0 0 0 0 0 0 0 0 0 0 0 0 0 -0 0 0 0 0 0 0 0
0 0 0 0 0 0 0 0 0 0 0 0 0 0 0 0 0 0 0 0 0 0 0 0 0 0 0 0 0 0 0 0 0 0 0 0 -0 0 0 0 0 0 0
0 0 0 0 0 0 0 0 0 0 0 0 0 0 0 0 0 0 0 0 0 0 0 0 0 0 0 0 0 0 0 0 0 0 0 0 0 0 0 -0 0 0 -0
0 0 0 0 0 0 0 0 0 0 0 0 0 0 0 0 0 0 0 0 0 0 0 0 0 0 0 0 0 0 0 0 0 0 0 0 0 0 -0 0 -0 0 0
0 0 0 0 0 0 0 0 0 0 0 0 0 0 0 0 0 0 0 0 0 0 0 0 0 0 0 0 0 0 0 0 0 0 0 0 0 0 0 0 -0 -0 0
0 0 0 0 0 0 0 0 0 0 0 0 0 0 0 0 0 0 0 0 0 0 0 0 0 0 0 0 0 0 0 0 0 0 0 0 0 0 0 0 0 0 0
0 0 0 0 0 0 0 0 0 0 0 0 0 0 0 0 0 0 0 0 0 0 0 0 0 0 0 0 0 0 0 0 0 0 0 0 0 0 0 0 0 0 0
0 0 0 0 0 0 0 0 0 0 0 0 0 0 0 0 0 0 0 0 0 0 0 0 0 0 0 0 0 0 0 0 0 0 0 0 0 0 0 0 0 0 -0
0 0 0 0 0 0 0 0 0 0 0 0 0 0 0 0 0 0 0 0 0 0 0 0 0 0 0 0 0 0 0 0 0 0 0 0 0 0 0 0 0 0 0
0 0 0 0 0 0 0 0 0 0 0 0 0 0 0 0 0 0 0 0 0 0 0 0 0 0 0 0 0 0 0 0 0 0 0 0 0 0 0 0 0 0 0
Wind_Speed
12 14 14 15 15 14 12 15 16 16 16 16 15 15 17 19 19 16 16 16 17 15 12 14 18 17 11 8 9 10 12 11 11 5 4 6 5 6 5 7 7 8 7
11 12 14 15 15 15 15 16 16 16 16 17 17 18 18 18 19 18 18 16 15 13 14 13 14 10 18 14 11 13 13 14 11 14 6 5 7 6 6 6 6 6 7
11 12 13 13 13 15 15 16 16 18 19 18 19 18 18 18 20 21 18 17 16 10 8 8 6 11 16 14 16 15 13 11 11 8 6 3 5 3 4 3 4 4 3
11 13 14 13 12 12 13 13 14 15 16 17 17 17 18 19 20 21 21 18 14 13 13 13 13 12 10 9 5 12 13 12 12 8 6 4 3 3 3 5 3 3 4
13 13 14 13 11 12 13 13 13 14 14 16 18 19 19 20 17 20 21 21 20 15 14 13 12 14 18 17 7 7 4 8 8 8 6 5 5 4 7 4 6 3 5
13 13 14 14 13 14 14 14 14 15 16 16 19 20 21 16 35 32 23 18 19 19 17 15 13 18 14 17 19 16 12 5 3 1 3 3 2 2 3 5 5 4 5
12 13 14 13 15 16 15 16 17 17 16 17 17 18 18 20 36 31 28 14 16 18 18 15 15 15 16 10 14 16 17 21 12 7 4 3 2 2 3 2 1 2 3
12 13 13 14 14 15 16 16 16 15 16 15 17 18 17 18 33 31 26 14 13 16 18 18 15 17 20 14 9 10 10 12 11 8 7 7 7 4 3 2 3 6 6
13 13 13 13 14 14 15 16 15 14 14 14 15 18 19 18 35 32 20 12 13 14 14 16 17 16 27 23 14 11 9 11 9 15 13 9 11 13 8 5 2 2 6
10 11 11 11 13 14 13 13 13 12 12 12 14 14 21 17 30 32 25 12 14 13 13 15 29 25 31 31 15 14 14 13 12 10 8 8 7 7 17 11 4 3 5
8 9 10 11 8 13 12 10 12 12 12 13 14 13 15 19 19 32 31 14 12 11 12 15 16 33 33 30 28 19 18 12 10 7 5 6 7 12 11 7 8 6 6
6 7 8 8 9 8 11 11 12 12 12 12 12 12 12 14 26 27 30 27 22 11 13 11 14 28 28 30 22 31 28 15 10 11 12 13 13 12 11 10 11 8 7
6 6 6 6 7 7 6 9 9 11 10 11 11 11 12 12 12 28 28 27 25 12 11 19 24 24 24 17 29 29 19 13 12 12 13 12 11 10 10 9 8 10 9
5 5 5 6 7 7 6 5 7 8 8 8 10 10 10 12 13 12 13 13 20 15 13 10 11 11 12 13 12 14 10 9 8 9 8 7 8 10 10 10 8 10 8
6 7 6 5 5 6 5 6 4 8 12 8 6 6 9 9 12 17 17 12 11 12 8 6 9 10 12 12 11 11 10 10 11 10 9 9 9 9 10 9 9 9 9
5 5 4 4 4 4 4 5 13 13 18 20 20 12 5 19 23 22 19 21 22 12 7 9 10 10 12 12 12 12 11 13 12 11 11 10 10 10 10 10 9 9 9
3 3 3 4 3 3 3 4 5 7 13 17 20 21 21 20 22 23 19 18 22 14 9 8 8 9 9 10 10 10 12 12 13 11 11 11 11 10 11 10 10 9 10
3 3 2 1 1 2 2 2 2 2 5 6 11 16 19 18 20 22 22 14 11 13 8 8 9 9 10 9 9 9 9 10 11 11 12 12 11 12 11 11 11 11 11
2 1 1 2 2 2 2 1 1 2 3 3 5 5 8 16 15 16 16 6 6 7 8 8 8 9 9 9 8 8 9 9 10 10 10 10 11 11 11 11 10 13 11
2 2 3 2 2 3 3 4 5 5 5 5 6 6 8 7 9 9 8 7 8 7 7 6 7 7 6 7 8 9 9 10 10 10 10 10 10 9 10 11 11 11 10
1 1 1 2 3 3 3 4 4 3 4 4 3 3 8 6 6 7 8 8 7 7 7 7 7 7 7 8 8 8 8 8 10 10 10 10 10 11 11 10 10 10 10
2 1 1 1 1 1 1 2 3 4 4 4 4 4 7 2 3 4 4 5 5 5 5 6 7 7 7 7 8 8 8 9 10 10 10 10 9 10 11 10 10 10 10
2 2 1 1 1 2 0 1 1 2 3 3 4 4 4 4 5 6 5 4 4 4 4 4 4 6 6 6 6 7 8 10 10 10 10 10 10 10 10 11 11 10 10
3 3 3 2 1 1 2 3 3 4 3 3 3 4 4 4 4 5 5 5 5 6 5 5 5 7 7 6 4 5 6 7 7 7 10 9 9 11 9 10 10 12 10
3 3 3 3 3 3 2 3 3 3 3 3 4 3 4 4 4 4 4 4 4 4 5 4 4 6 7 10 10 11 12 13 10 10 7 8 9 12 9 8 10 10 11
4 4 3 3 3 3 3 3 4 3 4 4 4 4 4 4 5 4 4 4 4 4 5 4 5 8 9 7 9 13 12 13 13 14 9 8 8 8 8 9 12 8 11
Wind_Direction
355 354 351 354 350 347 349 346 347 348 349 348 348 350 355 348 346 340 330 315 296 254 236 229 221 220 221 203 212 214 218 210 218 208 184 193 186 195 201 197 203 203 204
348 355 357 353 353 352 353 355 351 351 352 351 350 353 359 1 353 353 340 327 310 283 257 239 245 230 230 223 218 227 215 210 201 219 176 184 194 206 215 194 193 207 210
352 2 357 356 354 353 352 354 350 357 359 356 355 356 357 0 3 358 351 343 334 350 6 17 278 224 230 218 213 210 211 211 210 195 167 145 192 161 214 199 170 199 206
359 5 360 358 352 351 352 355 350 353 0 359 354 355 4 3 8 9 359 359 358 348 43 34 40 39 31 277 218 216 198 203 198 200 162 155 150 167 191 210 213 187 212
5 5 2 356 354 356 357 357 355 359 4 1 358 4 5 11 8 14 12 7 8 3 2 39 31 47 47 38 21 44 357 200 189 188 190 176 170 156 192 193 217 186 225
8 6 1 359 357 1 360 360 1 3 7 11 7 6 7 12 13 13 24 12 10 13 4 360 15 19 29 47 50 34 36 22 56 170 157 137 117 108 151 191 183 156 241
8 6 3 357 359 1 1 1 5 6 5 14 9 12 10 13 16 14 17 21 16 8 11 3 7 8 8 10 51 51 30 40 21 42 353 62 69 40 56 321 343 249 219
13 10 5 2 5 3 3 4 2 2 7 8 9 10 11 14 19 18 13 20 21 16 6 13 6 12 12 1 22 47 55 31 10 24 9 336 337 335 327 352 315 302 284
15 13 10 5 7 7 7 0 358 1 7 9 10 6 13 9 17 20 25 13 21 22 12 4 15 19 17 24 38 34 45 39 360 17 1 321 322 301 270 243 224 241 272
2 9 13 11 17 9 4 1 360 2 8 5 13 14 14 10 13 22 24 10 16 23 18 17 19 23 21 26 30 32 30 9 2 16 2 25 7 347 46 32 10 302 274
358 11 19 11 23 9 3 1 6 8 10 12 10 11 15 13 12 20 24 24 18 22 15 9 11 17 20 23 30 27 21 4 11 20 3 17 15 15 28 341 8 16 310
2 12 13 14 18 17 8 1 7 10 14 13 10 12 10 12 14 17 22 28 24 23 23 11 9 15 22 21 29 24 15 11 7 23 20 14 11 4 353 346 360 327 282
14 12 11 8 15 4 4 7 8 10 17 13 10 7 6 5 10 13 16 19 22 20 22 14 12 13 14 11 25 25 14 8 1 19 16 5 358 348 337 353 353 327 303
19 16 18 9 21 6 360 3 12 16 14 19 16 7 7 4 5 8 10 12 15 15 4 356 350 356 17 25 20 22 15 2 356 21 16 349 350 356 355 354 353 348 345
42 38 28 25 7 6 4 2 23 8 27 14 22 14 7 14 12 16 18 16 11 9 358 2 11 12 16 17 15 15 5 0 10 8 11 5 4 0 355 355 360 360 1
51 39 23 29 21 14 8 357 16 27 27 28 22 26 13 23 19 17 21 25 27 16 19 22 17 11 14 7 5 359 1 4 1 357 360 3 2 360 354 360 1 9 353
92 55 35 35 22 18 12 21 3 341 23 26 24 24 21 20 24 22 19 21 26 31 37 24 18 12 10 0 359 358 352 353 348 356 357 355 352 353 356 354 356 358 354
87 90 97 103 69 33 20 358 12 10 352 351 11 24 17 18 20 22 20 8 14 22 26 12 5 2 6 3 355 352 350 347 352 352 352 350 351 348 350 352 349 347 344
81 74 68 28 12 16 10 12 24 12 3 328 346 10 10 13 21 26 30 40 26 11 7 2 358 357 352 349 350 351 340 350 348 348 348 345 344 342 343 343 337 339 336
5 31 43 45 19 13 8 5 4 6 8 8 11 358 349 359 9 7 14 17 14 11 6 1 351 344 344 347 345 347 349 350 351 346 342 343 340 337 336 337 336 334 334
208 310 94 41 18 2 360 359 352 354 351 356 339 337 359 12 350 352 354 359 1 0 356 354 348 345 351 348 345 345 345 346 343 341 342 337 337 335 335 331 331 330 325
183 196 183 174 148 50 333 342 339 336 336 337 332 337 352 7 345 335 338 337 320 324 331 339 332 341 344 342 342 342 339 341 341 337 332 327 329 331 330 326 329 334 332
168 170 189 206 209 167 312 301 264 269 282 290 301 310 325 325 330 332 325 312 316 314 320 326 324 335 331 324 318 328 337 337 328 330 322 323 325 329 327 326 328 333 338
171 171 194 191 197 198 212 239 251 258 250 251 259 263 261 266 271 284 292 303 317 321 324 330 329 332 332 332 329 331 336 323 321 312 316 310 316 324 325 328 329 329 331
163 176 182 198 203 210 228 246 245 252 253 244 257 248 256 255 261 262 274 283 288 301 302 303 308 316 326 328 331 333 337 338 335 329 323 315 313 317 326 324 327 331 335
201 196 193 189 200 203 210 231 242 236 249 251 248 254 252 258 258 256 260 259 267 278 289 289 305 322 329 321 326 337 335 338 340 338 338 331 332 331 333 330 334 339 341